DW9558 Weather Reports


Display with metric or nautical units.
time (UTC)temp
F
wind
direction
speed
MPH
gust
MPH
rain 1hr
in
rain 24hr
in
rain mn
in
humidity
%
barometer
mb
20260903200052 72 180 1.0 6.0 0.00 0.00 0.00 66 1019.2
20260903194544 71 180 0.0 8.0 0.00 0.00 0.00 67 1019.4
20260903193043 71 180 1.0 4.0 0.00 0.00 0.00 67 1019.6
20260903191542 71 180 0.0 4.0 0.00 0.00 0.00 67 1019.7
20260903190040 72 180 0.0 7.0 0.00 0.00 0.00 66 1019.9
20260903184543 72 180 1.0 7.0 0.00 0.00 0.00 65 1020.0
20260903183038 71 180 1.0 9.0 0.00 0.00 0.00 66 1019.9
20260903181537 72 180 2.0 6.0 0.00 0.00 0.00 66 1020.1
20260903180038 71 180 1.0 7.0 0.00 0.00 0.00 67 1020.0
20260903174531 70 180 0.0 6.0 0.00 0.00 0.00 70 1020.2
20260903173027 69 180 0.0 4.0 0.00 0.00 0.00 72 1020.3
20260903171523 67 180 0.0 5.0 0.00 0.00 0.00 76 1020.3
20260903170022 66 180 0.0 3.0 0.00 0.00 0.00 78 1020.5
20260903164516 65 180 0.0 3.0 0.00 0.00 0.00 80 1020.5
20260903163012 64 180 0.0 3.0 0.00 0.00 0.00 81 1020.6
20260903161509 63 180 0.0 2.0 0.00 0.00 0.00 82 1020.7
20260903160020 62 180 0.0 2.0 0.00 0.00 0.00 82 1020.9
20260903154506 62 180 0.0 3.0 0.00 0.00 0.00 83 1020.9
20260903153006 61 180 0.0 2.0 0.00 0.00 0.00 83 1021.0
20260903151505 61 180 0.0 1.0 0.00 0.00 0.00 84 1020.9
20260903150014 60 180 0.0 5.0 0.00 0.00 0.00 84 1020.9
20260903144505 60 180 0.0 3.0 0.00 0.00 0.00 85 1020.9
20260903143003 60 180 0.0 4.0 0.00 0.00 0.00 85 1020.9
20260903141501 60 180 0.0 4.0 0.00 0.00 0.00 85 1020.8
20260903140112 59 180 0.0 4.0 0.00 0.00 0.00 85 1020.7
20260903134558 59 180 0.0 2.0 0.00 0.00 0.00 85 1020.5
20260903133102 59 181 0.0 3.0 0.00 0.00 0.00 84 1020.5
20260903131556 60 180 0.0 3.0 0.00 0.00 0.00 84 1020.5
20260903130054 60 181 0.0 1.0 0.00 0.00 0.00 84 1020.6
20260903124557 60 181 0.0 3.0 0.00 0.00 0.00 84 1020.7
20260903123053 60 180 0.0 0.0 0.00 0.00 0.00 84 1020.6
20260903121553 60 180 0.0 3.0 0.00 0.00 0.00 84 1020.6
20260903114551 60 181 0.0 3.0 0.00 0.00 0.00 83 1020.7
20260903113049 60 181 0.0 5.0 0.00 0.00 0.00 83 1020.9
20260903111549 60 181 0.0 1.0 0.00 0.00 0.00 83 1021.0
20260903110048 60 180 0.0 0.0 0.00 0.00 0.00 83 1021.1
20260903104549 60 181 0.0 0.0 0.00 0.00 0.00 83 1021.0
20260903103047 60 181 0.0 0.0 0.00 0.00 0.00 83 1021.0
20260903101549 60 181 0.0 5.0 0.00 0.00 0.00 84 1021.0
20260903100045 60 181 0.0 1.0 0.00 0.00 0.00 84 1021.1
20260903094544 60 181 0.0 4.0 0.00 0.00 0.00 83 1021.0
20260903093059 60 181 0.0 3.0 0.00 0.00 0.00 83 1021.1
20260903091541 60 181 0.0 0.0 0.00 0.00 0.00 83 1021.4
20260903090040 60 181 0.0 0.0 0.00 0.00 0.00 82 1021.4
20260903084539 60 181 0.0 0.0 0.00 0.00 0.00 81 1021.4
20260903083037 61 181 0.0 1.0 0.00 0.00 0.00 80 1021.4
20260903081539 61 181 0.0 1.0 0.00 0.00 0.00 78 1021.4
20260903080034 61 181 0.0 2.0 0.00 0.00 0.00 77 1021.3
20260903074531 62 181 0.0 0.0 0.00 0.00 0.00 75 1021.2
20260903073037 62 181 0.0 0.0 0.00 0.00 0.00 74 1021.3
20260903071535 62 181 0.0 1.0 0.00 0.00 0.00 73 1021.2
20260903070025 63 181 0.0 0.0 0.00 0.00 0.00 73 1021.2
20260903064524 63 181 0.0 0.0 0.00 0.00 0.00 72 1021.2
20260903063023 64 180 0.0 1.0 0.00 0.00 0.00 70 1021.1
20260903061538 64 181 0.0 0.0 0.00 0.00 0.00 68 1021.1
20260903060022 65 181 0.0 5.0 0.00 0.00 0.00 66 1021.1
20260903054522 65 181 0.0 6.0 0.00 0.00 0.00 65 1021.1
20260903053022 66 180 0.0 5.0 0.00 0.00 0.00 64 1021.2
20260903051521 66 181 1.0 4.0 0.00 0.00 0.00 62 1021.3
20260903050028 67 180 0.0 2.0 0.00 0.00 0.00 61 1021.4
20260903044520 68 180 1.0 7.0 0.00 0.00 0.00 60 1021.4
20260903043021 68 180 0.0 4.0 0.00 0.00 0.00 60 1021.3
20260903041527 69 181 1.0 4.0 0.00 0.00 0.00 59 1021.1
20260903040019 70 180 0.0 3.0 0.00 0.00 0.00 59 1020.9
20260903034525 70 180 0.0 6.0 0.00 0.00 0.00 57 1020.7
20260903033035 71 180 0.0 4.0 0.00 0.00 0.00 56 1020.5
20260903031518 71 180 0.0 5.0 0.00 0.00 0.00 54 1020.4
20260903030019 72 181 0.0 3.0 0.00 0.00 0.00 52 1020.3
20260903024517 72 180 0.0 5.0 0.00 0.00 0.00 51 1020.3
20260903023015 73 181 0.0 3.0 0.00 0.00 0.00 50 1020.5
20260903021515 73 180 0.0 4.0 0.00 0.00 0.00 49 1020.5
20260903020013 74 181 0.0 4.0 0.00 0.00 0.00 49 1020.5
20260903014511 74 180 0.0 5.0 0.00 0.00 0.00 49 1020.7
20260903013011 74 180 1.0 7.0 0.00 0.00 0.00 50 1020.7
20260903011511 75 180 0.0 5.0 0.00 0.00 0.00 51 1020.7
20260903010010 75 181 0.0 7.0 0.00 0.00 0.00 51 1020.8
20260903004510 75 180 1.0 8.0 0.00 0.00 0.00 51 1020.8
20260903003008 76 181 0.0 7.0 0.00 0.00 0.00 50 1021.0
20260903001506 77 182 1.0 7.0 0.00 0.00 0.00 50 1021.1
20260903000005 77 181 0.0 5.0 0.00 0.00 0.00 52 1021.2
20260902234502 77 181 0.0 5.0 0.00 0.00 0.00 52 1021.4
20260902233001 76 181 2.0 9.0 0.00 0.00 0.00 52 1021.4
20260902231609 76 180 1.0 5.0 0.00 0.00 0.00 52 1021.5
20260902230059 76 180 0.0 13.0 0.00 0.00 0.00 53 1021.7
20260902224605 76 180 2.0 10.0 0.00 0.00 0.00 54 1021.8
20260902223059 77 180 0.0 5.0 0.00 0.00 0.00 52 1021.8
20260902221556 76 180 0.0 10.0 0.00 0.00 0.00 53 1021.9
20260902220059 76 178 0.0 6.0 0.00 0.00 0.00 54 1022.0
20260902214554 76 178 0.0 4.0 0.00 0.00 0.00 55 1022.2
20260902213103 76 178 1.0 11.0 0.00 0.00 0.00 55 1022.4
20260902211552 75 177 0.0 6.0 0.00 0.00 0.00 55 1022.5
20260902210051 75 177 0.0 2.0 0.00 0.00 0.00 57 1022.5
20260902204549 74 177 1.0 8.0 0.00 0.00 0.00 56 1022.6
20260902203101 75 177 0.0 5.0 0.00 0.00 0.00 56 1022.7
20260902201550 75 177 0.0 4.0 0.00 0.00 0.00 54 1022.8